Regional Weather Roundup
Issued by NWS

Home | Current Version | Previous Version | Text Only | Print | Product List | Glossary Off
Versions: 1 2 3 4 5 6 7 8 9 10 11 12 13 14 15 16 17 18 19 20 21 22 23 24 25 26 27 28 29 30 31 32 33 34 35 36 37 38 39 40 41 42 43 44 45 46 47 48 49 50

000
ASUS43 KDTX 240310
RWRMI
MICHIGAN HOURLY REGIONAL WEATHER ROUNDUP
NATIONAL WEATHER SERVICE DETROIT/PONTIAC MI
1100 PM EDT SUN APR 23 2017

NOTE: "FAIR" INDICATES FEW OR NO CLOUDS BELOW 12,000 FEET WITH NO
SIGNIFICANT WEATHER AND/OR OBSTRUCTION TO VISIBILITY.

MIZ047>049-052>055-059>063-066>070-074>076-081>083-240400-
SOUTHEAST LOWER MICHIGAN

CITY           SKY/WX    TMP DP  RH WIND       PRES   REMARKS
ADRIAN         CLEAR     53  31  42 CALM      30.07S
ALMA           CLEAR     46  38  75 N8        30.11S
ANN ARBOR      CLEAR     47  36  65 CALM      30.07R
BAD AXE        CLEAR     38  36  91 NE5       30.12F WCI  35
CARO           CLEAR     44  37  79 CALM      30.11S
DETROIT CITY   CLEAR     52  36  54 SE6       30.08R
DETROIT        PTCLDY    54  30  40 S3        30.08S
FLINT          CLEAR     51  41  68 NE12      30.08R
GROSSE ILE     CLEAR     50  39  65 CALM      30.07S
HILLSDALE      CLEAR     55  32  41 CALM      30.06S
HOWELL         CLEAR     51  31  45 CALM      30.05F

CITY           SKY/WX    TMP DP  RH WIND       PRES   REMARKS
JACKSON        CLEAR     53  31  42 SE3       30.06R
LAMBERTVILLE   CLEAR     46  39  76 CALM      30.07S
LANSING        CLEAR     53  35  50 N9        30.08R
LAPEER         FAIR      45  37  76 E7        30.09S
MASON          CLEAR     52  38  60 CALM      30.06S
MONROE         CLEAR     45  37  72 E3        30.07S
MT. CLEMENS    PTCLDY    46  39  76 NE3       30.08R
PONTIAC        PTCLDY    52  36  54 SE3       30.06R
PORT HOPE        N/A     41  37  86 N10       30.12R
PORT HURON     CLEAR     39  36  87 NE3       30.10F
TRI CITIES     CLEAR     46  40  79 NE9       30.12S
MIDLAND        FAIR      46  35  66 NE7       30.12S
TROY           CLEAR     55  31  40 E7        30.10R
SAGINAW HB     CLEAR     45  36  70 NE12      30.11S
$$
MIZ043>046-050>051-056>058-064>065-071>073-077>080-240400-
SOUTHWEST LOWER MICHIGAN

CITY           SKY/WX    TMP DP  RH WIND       PRES   REMARKS
BATTLE CREEK   CLEAR     55  32  41 N7        30.07S
BENTON HARBOR  CLEAR     44  32  62 CALM      30.06S
BIG RAPIDS     CLEAR     49  37  63 E9        30.09S
COLDWATER      CLEAR     47  39  72 CALM      30.06S
FREMONT        FAIR      49  33  53 CALM      30.07S
HOLLAND        CLEAR     47  36  65 CALM      30.07F
GRAND RAPIDS   PTCLDY    55  34  45 N3        30.07S
IONIA          FAIR      50  42  74 NE9       30.08R
KALAMAZOO      CLEAR     49  32  52 N8        30.07R
LUDINGTON      PTCLDY    44  37  75 NE3       30.08S
MARSHALL       CLEAR     47  34  59 CALM      30.05S
MOUNT PLEASANT CLEAR     45  35  67 E3        30.11S
MUSKEGON       MOCLDY    45  40  82 CALM      30.07F
SOUTH HAVEN    CLEAR     44  32  63 CALM      30.06F
$$
MIZ016>042-240400-
NORTHERN LOWER MICHIGAN

CITY           SKY/WX    TMP DP  RH WIND       PRES   REMARKS
ALPENA         PTCLDY    41  25  53 N10       30.16S
BEAVER ISLAND  PTCLDY    35  24  64 NE8       30.17R WCI  28
BELLAIRE       PTCLDY    38  24  55 N3        30.15R
CADILLAC       PTCLDY    38  28  65 N5        30.10S WCI  35
CHARLEVOIX     CLOUDY    38  27  64 N7        30.18S WCI  32
FRANKFORT      CLOUDY    40  26  57 E6        30.12S
GAYLORD        PTCLDY    42  26  53 NE7       30.12S
GRAYLING       CLEAR     41  31  67 E8        30.12S
HARBOR SPRINGS PTCLDY    39  24  56 NE6       30.15S WCI  35
HOUGHTON LAKE  CLEAR     46  35  65 E10       30.11R
MANISTEE       PTCLDY    41  25  53 E10       30.10R
OSCODA         CLOUDY    42  35  74 NW5       30.13S
PELLSTON       CLOUDY    37  23  56 NE9       30.16S WCI  30
ROGERS CITY    CLOUDY    37  29  71 N8        30.18R WCI  31
TRAVERSE CITY  PTCLDY    40  25  55 N6        30.14R
$$
MIZ007>008-015-240400-
EASTERN UPPER MICHIGAN

CITY           SKY/WX    TMP DP  RH WIND       PRES   REMARKS
KINROSS        CLOUDY    31  25  78 N12       30.17F WCI  22
MACKINAC ISLAN PTCLDY    32  23  69 VRB13     30.16F WCI  22
NEWBERRY       CLOUDY    30  23  75 N5        30.18S WCI  25
S. S. MARIE    CLOUDY    34  25  69 NW5       30.17S WCI  30
MUNISING         N/A     33  25  72 N9        30.18F WCI  25
$$
MIZ004>006-011>014-085-240400-
CENTRAL UPPER MICHIGAN

CITY           SKY/WX    TMP DP  RH WIND       PRES   REMARKS
MANISTIQUE     CLOUDY    32  22  66 N9        30.17S WCI  24
ESCANABA       CLOUDY    33  21  61 N6        30.18R WCI  28
MENOMINEE      CLOUDY    38  26  62 E17       30.15S WCI  28
SAWYER-GWINN   CLOUDY    30  21  69 NE3       30.17S
$$
MIZ001>003-009>011-084-240400-
WESTERN UPPER MICHIGAN

CITY           SKY/WX    TMP DP  RH WIND       PRES   REMARKS
IRON MOUNTAIN  CLOUDY    34  19  54 NE9       30.14R WCI  27
HOUGHTON       CLOUDY    31  20  63 SE7       30.15F WCI  24
COPPER HARBOR    N/A     32  18  56 CALM      30.19S
IRONWOOD       CLOUDY    35  27  72 E12       30.09F WCI  27
$$

ABBREVIATIONS USED IN REMARKS
   TC - TEMPERATURE IN CELSIUS
  WCI - WIND CHILL INDEX
   HX - HEAT INDEX
  VSB - VISIBILITY




USA.gov is the U.S. government's official web portal to all federal, state and local government web resources and services.